Content
SEND FEEDBACK

Daily
Averages
Monthly
Summary
United States of America

CAMBRIDGE, NEBRASKA


Home > North America > United States > Nebraska
Elevation: 2299 feet     Latitude: 40 16N     Longitude: 100 10W

WEATHER
 
SELECT A DAY
Number of Records: 186,911;   Date Range: 1/1/95 - 10/29/14
 
SHARE

PRINT THIS DATA

[ ← Previous Day ]
WEATHER ALMANAC - FEBRUARY 13, 2013
[ Next Day → ]
[ °C ]   °F
Weather ElementAverageHighLow
Temperature37.9 °F55 °F (2:53 pm)23 °F (6:53 am)
Dewpoint20.7 °F28 °F (10:53 pm)16 °F (6:53 am)
Humidity54 %75 % (1:53 am)29 % (2:53 pm)
Barometer29.96 in30.03 in (1:53 am)29.87 in (2:53 pm)
Wind Speed13.6 mph23 mph (12:53 pm)
Wind Gust28.8 mph (12:53 pm)
Weather ElementAverage
Visibility10 mi
Wind DirectionWNW (283.5 °)

Weather ElementTotal
Precipitation---
Heating Degree Days26 (Base 65)
Averaged from 23 records on February 13, 2013
WEATHER CONDITIONS BREAKOUT
WIND DIRECTION BREAKOUT
WEATHER BY HOUR - FEBRUARY 13, 2013
[ °C ]   °F
Local TimeTemperatureDewpointHumidityBarometerVisibilityWind DirectionWind SpeedGust SpeedPrecipitationEventsConditions
1:53 AM25.0 °F18.0 °F75 %30.03 in10.0 miWSW (240°)10.4 mphClear
2:53 AM24.1 °F17.1 °F75 %30.03 in10.0 miWest (260°)11.5 mphClear
3:53 AM26.1 °F17.1 °F69 %30.01 in10.0 miWest (280°)13.8 mphClear
4:53 AM24.1 °F17.1 °F75 %30.00 in10.0 miWest (270°)12.7 mphClear
5:53 AM24.1 °F17.1 °F75 %30.00 in10.0 miWSW (250°)6.9 mphClear
6:53 AM23.0 °F16.0 °F74 %30.01 in10.0 miWSW (250°)9.2 mphClear
7:53 AM24.1 °F17.1 °F75 %30.01 in10.0 miWest (270°)10.4 mphClear
8:53 AM28.9 °F18.0 °F64 %30.01 in10.0 miWest (280°)13.8 mphClear
9:53 AM35.1 °F21.0 °F57 %29.99 in10.0 miWNW (290°)16.1 mphClear
10:53 AM43.0 °F19.9 °F40 %29.97 in10.0 miWNW (290°)16.1 mphClear
11:53 AM46.9 °F21.0 °F36 %29.95 in10.0 miWNW (290°)18.4 mphClear
12:53 PM52.0 °F21.0 °F30 %29.91 in10.0 miWNW (300°)23.0 mph28.8 mphClear
1:53 PM53.1 °F21.9 °F30 %29.89 in10.0 miWNW (300°)18.4 mph28.8 mphClear
2:53 PM55.0 °F23.0 °F29 %29.87 in10.0 miNW (310°)21.9 mph27.6 mphClear
3:53 PM52.0 °F21.9 °F31 %29.88 in10.0 miNW (310°)17.3 mph27.6 mphMostly Cloudy
4:53 PM51.1 °F23.0 °F33 %29.88 in10.0 miWNW (300°)13.8 mphMostly Cloudy
5:53 PM50.0 °F23.0 °F35 %29.89 in10.0 miWNW (290°)11.5 mphOvercast
6:53 PM44.1 °F21.9 °F42 %29.91 in10.0 miWest (280°)9.2 mphMostly Cloudy
7:53 PM42.1 °F21.9 °F45 %29.92 in10.0 miSW (220°)4.6 mphScattered Clouds
8:53 PM34.0 °F21.9 °F61 %29.94 in10.0 miWNW (300°)9.2 mphClear
9:53 PM37.9 °F23.0 °F55 %29.95 in10.0 miWNW (290°)13.8 mphClear
10:53 PM39.9 °F28.0 °F63 %29.96 in10.0 miNNW (330°)19.6 mphClear
11:53 PM35.1 °F27.0 °F72 %29.99 in10.0 miNW (320°)10.4 mphScattered Clouds
Hourly data recorded from KMCK, located miles away from Cambridge, Nebraska







STORIES FROM OUR PARTNERS